Location: Monroe
(41.3286°N, 74.1872°W)
Time: 01:30:59
(UTC+00:00)

Hubble Space Telescope - Pass Details

Date: 27 January 2026
Orbit: 477 x 479 km, 28.5° (Epoch: 14 February)

Event Time Altitude Azimuth Distance (km) Brightness Sun altitude
Rises 23:16:02 0° 232° (SW) 2,511 5.5 -13.1°
Reaches altitude 10° 23:19:32 10° 198° (SSW) 1,635 3.6 -13.8°
Maximum altitude 23:20:50 12° 178° (S) 1,544 3.2 -14.0°
Drops below altitude 10° 23:22:08 10° 157° (SSE) 1,636 3.1 -14.2°
Enters shadow 23:23:31 - 140° (SE) 1,901 3.3 -14.5°
